Clinton, IA

2:01 PM CDT on April 27, 2017 (GMT -0500)
Clinton Municipal

Weather History for KCWI - November, 2010

Change the Weather History Date:

Monday, November 15, 2010

  Actual Average Record
Temperature  
Mean Temperature 40 °F -  
Max Temperature 53 °F 48 °F 71 °F (1990)
Min Temperature 26 °F 31 °F 2 °F (1959)
Degree Days  
Heating Degree Days 26    
Moisture  
Dew Point -11 °F    
Average Humidity 12    
Maximum Humidity 13    
Minimum Humidity 11    
Precipitation  
Precipitation 0.00 in - - ()
Sea Level Pressure  
Sea Level Pressure 29.84 in    
Wind  
Wind Speed 5 mph (SSE)    
Max Wind Speed 17 mph    
Max Gust Speed 23 mph    
Visibility 10 miles    
Events      
Averages and records for this station are not official NWS values.
T = Trace of Precipitation, MM = Missing Value Source: NWS Daily Summary

Daily Weather History Graph

Daily Weather History Graph

Search for Another Location

Airport or City:

Trip Planner

Search our weather history database for the weather conditions in past years. The results will help you decide how hot, cold, wet, or windy it might be!

Date:

Astronomy

Nov. 15, 2010 Rise Set
Actual Time 6:50 AM CST 4:40 PM CST
Civil Twilight 6:20 AM CST 5:10 PM CST
Nautical Twilight 5:47 AM CST 5:44 PM CST
Astronomical Twilight 5:14 AM CST 6:17 PM CST
Moon 1:28 PM CST (11/15) 12:51 AM CST (11/15)
Length of Visible Light 10h 49m
Length of Day
9h 49m
Waxing Gibbous, 69% of the Moon is Illuminated
Nov 15
Waxing Gibbous
Nov 21
Full
Nov 28
Last Quarter
Dec 5
New
Dec 13
First Quarter

Hourly Weather History & Observations

Time (CST) Temp. Windchill Dew Point Humidity Pressure Visibility Wind Dir Wind Speed Gust Speed Precip Events Conditions
12:15 AM 28.4 °F - -18.4 °F 12% 29.88 in 10.0 mi Calm Calm - N/A   Clear
12:35 AM 28.4 °F - -18.4 °F 12% 29.88 in 10.0 mi Calm Calm - N/A   Clear
12:55 AM 28.4 °F - -18.4 °F 12% 29.87 in 10.0 mi Calm Calm - N/A   Clear
1:15 AM 28.4 °F - -18.4 °F 12% 29.87 in 10.0 mi Calm Calm - N/A   Clear
1:35 AM 26.6 °F 22.6 °F -18.4 °F 13% 29.87 in 10.0 mi South 3.5 mph - N/A   Clear
1:55 AM 26.6 °F 22.6 °F -20.2 °F 12% 29.86 in 10.0 mi ESE 3.5 mph - N/A   Clear
2:15 AM 26.6 °F 22.6 °F -20.2 °F 12% 29.86 in 10.0 mi East 3.5 mph - N/A   Scattered Clouds
2:35 AM 26.6 °F 22.6 °F -20.2 °F 12% 29.87 in 8.0 mi ESE 3.5 mph - N/A   Partly Cloudy
2:55 AM 26.6 °F 21.2 °F -20.2 °F 12% 29.86 in 8.0 mi ESE 4.6 mph - N/A   Clear
3:15 AM 26.6 °F 21.2 °F -20.2 °F 12% 29.85 in 8.0 mi SE 4.6 mph - N/A   Partly Cloudy
3:35 AM 26.6 °F 20.0 °F -20.2 °F 12% 29.85 in 9.0 mi SE 5.8 mph - N/A   Mostly Cloudy
3:55 AM 26.6 °F 22.6 °F -20.2 °F 12% 29.85 in 10.0 mi SE 3.5 mph - N/A   Mostly Cloudy
4:15 AM 28.4 °F 22.2 °F -18.4 °F 12% 29.84 in 10.0 mi SE 5.8 mph - N/A   Partly Cloudy
4:35 AM 26.6 °F 21.2 °F -18.4 °F 13% 29.85 in 10.0 mi SE 4.6 mph - N/A   Clear
4:55 AM 28.4 °F 22.2 °F -18.4 °F 12% 29.84 in 10.0 mi SE 5.8 mph - N/A   Clear
5:15 AM 28.4 °F 22.2 °F -18.4 °F 12% 29.84 in 10.0 mi SE 5.8 mph - N/A   Clear
5:35 AM 26.6 °F 21.2 °F -18.4 °F 13% 29.83 in 10.0 mi ESE 4.6 mph - N/A   Clear
5:55 AM 26.6 °F 19.1 °F -18.4 °F 13% 29.84 in 10.0 mi SE 6.9 mph - N/A   Mostly Cloudy
6:15 AM 28.4 °F 22.2 °F -18.4 °F 12% 29.84 in 10.0 mi SE 5.8 mph - N/A   Scattered Clouds
6:35 AM 28.4 °F 22.2 °F -18.4 °F 12% 29.84 in 10.0 mi SE 5.8 mph - N/A   Scattered Clouds
6:55 AM 28.4 °F 23.3 °F -18.4 °F 12% 29.84 in 7.0 mi SE 4.6 mph - N/A   Overcast
7:15 AM 30.2 °F 24.3 °F -16.6 °F 13% 29.84 in 8.0 mi SE 5.8 mph - N/A   Overcast
7:35 AM 32.0 °F 26.4 °F -16.6 °F 12% 29.84 in 8.0 mi SE 5.8 mph - N/A   Overcast
7:55 AM 32.0 °F 26.4 °F -16.6 °F 12% 29.85 in 8.0 mi SSE 5.8 mph - N/A   Scattered Clouds
8:15 AM 33.8 °F 27.7 °F -14.8 °F 12% 29.85 in 10.0 mi SSE 6.9 mph - N/A   Partly Cloudy
8:35 AM 33.8 °F 27.7 °F -14.8 °F 12% 29.85 in 10.0 mi SSE 6.9 mph - N/A   Clear
8:55 AM 35.6 °F 28.6 °F -13.0 °F 12% 29.85 in 10.0 mi SSE 9.2 mph - N/A   Clear
9:15 AM 37.4 °F 30.3 °F -11.2 °F 12% 29.85 in 10.0 mi South 10.4 mph - N/A   Clear
9:35 AM 39.2 °F 32.5 °F -9.4 °F 12% 29.86 in 10.0 mi South 10.4 mph - N/A   Clear
9:55 AM 42.8 °F 38.6 °F -7.6 °F 12% 29.86 in 10.0 mi South 6.9 mph - N/A   Partly Cloudy
10:15 AM 44.6 °F 38.8 °F -5.8 °F 12% 29.86 in 10.0 mi South 11.5 mph - N/A   Partly Cloudy
10:35 AM 46.4 °F 42.4 °F -5.8 °F 11% 29.85 in 10.0 mi South 8.1 mph - N/A   Partly Cloudy
10:55 AM 48.2 °F - -4.0 °F 11% 29.85 in 10.0 mi SSW 10.4 mph - N/A   Scattered Clouds
11:15 AM 46.4 °F 41.5 °F -5.8 °F 11% 29.85 in 10.0 mi SSW 10.4 mph - N/A   Overcast
11:35 AM 51.8 °F - -2.2 °F 11% 29.84 in 10.0 mi SSW 11.5 mph - N/A   Mostly Cloudy
11:55 AM 51.8 °F - -0.4 °F 12% 29.84 in 10.0 mi SSW 12.7 mph - N/A   Clear
12:15 PM 51.8 °F - -2.2 °F 11% 29.83 in 10.0 mi SW 11.5 mph - N/A   Partly Cloudy
12:35 PM 51.8 °F - -2.2 °F 11% 29.83 in 10.0 mi SW 11.5 mph - N/A   Mostly Cloudy
12:55 PM 51.8 °F - -2.2 °F 11% 29.82 in 10.0 mi SW 6.9 mph - N/A   Overcast
1:15 PM 51.8 °F - -0.4 °F 12% 29.81 in 10.0 mi SSW 11.5 mph - N/A   Overcast
1:35 PM 53.6 °F - -0.4 °F 11% 29.81 in 10.0 mi SSW 12.7 mph - N/A   Overcast
2:15 PM 53.6 °F - -0.4 °F 11% 29.80 in 10.0 mi SW 16.1 mph - N/A   Overcast
2:35 PM 53.6 °F - -0.4 °F 11% 29.80 in 10.0 mi SW 17.3 mph 23.0 mph N/A   Mostly Cloudy
2:55 PM 51.8 °F - -0.4 °F 12% 29.80 in 10.0 mi SSW 15.0 mph - N/A   Mostly Cloudy
3:15 PM 51.8 °F - -0.4 °F 12% 29.81 in 10.0 mi SSW 12.7 mph 18.4 mph N/A   Overcast
3:35 PM 53.6 °F - -0.4 °F 11% 29.81 in 10.0 mi SSW 12.7 mph 20.7 mph N/A   Overcast
3:55 PM 51.8 °F - -0.4 °F 12% 29.82 in 10.0 mi South 10.4 mph - N/A   Overcast
4:15 PM 48.2 °F - -2.2 °F 12% 29.82 in 10.0 mi South 9.2 mph - N/A   Mostly Cloudy
4:35 PM 46.4 °F 42.4 °F -5.8 °F 11% 29.82 in 10.0 mi South 8.1 mph - N/A   Scattered Clouds
4:55 PM 44.6 °F 40.2 °F -7.6 °F 11% 29.82 in 10.0 mi South 8.1 mph - N/A   Partly Cloudy
5:15 PM 42.8 °F 38.0 °F -7.6 °F 12% 29.82 in 10.0 mi South 8.1 mph - N/A   Clear
5:35 PM 42.8 °F 39.3 °F -9.4 °F 11% 29.83 in 10.0 mi SSE 5.8 mph - N/A   Mostly Cloudy
5:55 PM 42.8 °F 38.6 °F -9.4 °F 11% 29.83 in 10.0 mi SSE 6.9 mph - N/A   Overcast
6:15 PM 42.8 °F 38.6 °F -7.6 °F 12% 29.83 in 10.0 mi SSE 6.9 mph - N/A   Overcast
6:35 PM 42.8 °F 37.0 °F -7.6 °F 12% 29.83 in 8.0 mi South 10.4 mph - 0.01 in   Overcast
6:55 PM 44.6 °F 39.7 °F -7.6 °F 11% 29.83 in 10.0 mi SSE 9.2 mph - 0.01 in   Overcast
7:15 PM 42.8 °F 38.6 °F -7.6 °F 12% 29.83 in 10.0 mi SE 6.9 mph - N/A   Overcast
7:35 PM 42.8 °F - -7.6 °F 12% 29.83 in 10.0 mi Calm Calm - N/A   Overcast
7:55 PM 42.8 °F - -7.6 °F 12% 29.83 in 10.0 mi Calm Calm - N/A   Overcast
8:15 PM 42.8 °F - -7.6 °F 12% 29.84 in 10.0 mi Calm Calm - N/A   Overcast
8:35 PM 42.8 °F - -9.4 °F 11% 29.84 in 10.0 mi Calm Calm - N/A   Mostly Cloudy
8:55 PM 39.2 °F 37.0 °F -9.4 °F 12% 29.83 in 10.0 mi East 3.5 mph - N/A   Mostly Cloudy
9:15 PM 39.2 °F 37.0 °F -11.2 °F 11% 29.83 in 10.0 mi ESE 3.5 mph - N/A   Mostly Cloudy
9:35 PM 37.4 °F 33.8 °F -11.2 °F 12% 29.83 in 10.0 mi East 4.6 mph - N/A   Scattered Clouds
9:55 PM 37.4 °F 33.8 °F -11.2 °F 12% 29.83 in 9.0 mi East 4.6 mph - N/A   Mostly Cloudy
10:15 PM 35.6 °F 30.7 °F -13.0 °F 12% 29.82 in 8.0 mi East 5.8 mph - N/A   Scattered Clouds
10:35 PM 35.6 °F 30.7 °F -13.0 °F 12% 29.82 in 7.0 mi ENE 5.8 mph - N/A   Partly Cloudy
10:55 PM 35.6 °F 29.9 °F -13.0 °F 12% 29.82 in 7.0 mi ENE 6.9 mph - N/A   Mostly Cloudy
11:15 PM 35.6 °F 29.9 °F -13.0 °F 12% 29.82 in 8.0 mi ENE 6.9 mph - N/A   Overcast
11:35 PM 35.6 °F 29.9 °F -13.0 °F 12% 29.82 in 7.0 mi East 6.9 mph - N/A   Overcast
11:55 PM 37.4 °F 32.8 °F -11.2 °F 12% 29.82 in 8.0 mi ESE 5.8 mph - N/A   Overcast